Other Public Products
Issued by NWS Grand Forks, ND

Home | Current Version | Previous Version | Text Only | Print | Product List | Glossary On
Versions: 1 2 3 4 5 6 7 8 9 10 11 12 13 14 15 16 17 18 19 20 21 22 23 24 25 26 27 28 29 30 31 32 33 34 35 36 37 38 39 40 41 42 43 44 45 46 47 48 49 50
000
FPUS83 KFGF 301831
OPUFGF
PRAIRIE TO PINES WEATHER ROUNDUP
NATIONAL WEATHER SERVICE EASTERN NORTH DAKOTA/GRAND FORKS ND
100 PM CDT SAT MAY 30 2015

 **SATELLITE DATA USED TO AUGMENT SKY COVER AT AUTOMATED STATIONS**
 *****  WEATHER ACROSS EASTERN NORTH DAKOTA  *****

CITY           SKY/WX    TMP DP  RH WIND       PRES   REMARKS
GRAND FORKS    MOSUNNY   49  30  48 NE10      30.40F
6HR MIN TEMP:  34; 6HR MAX TEMP:  49;

GRAND FORKS AF SUNNY     49  29  45 VRB6      30.40F
GRAND CITY NWS   N/A     48 N/A N/A MISG        N/A
BUXTON           N/A     50  29  45 N14         N/A
DEVILS LAKE    SUNNY     46  25  42 NE9       30.38F
6HR MIN TEMP:  34; 6HR MAX TEMP:  46;

FARGO          SUNNY     50  35  56 N9        30.36F
6HR MIN TEMP:  36; 6HR MAX TEMP:  51;

WAHPETON ARPT  CLEAR     48  34  57 N12G17    30.35F
$$

 *****  WEATHER ACROSS CENTRAL AND WESTERN NORTH DAKOTA  *****

CITY           SKY/WX    TMP DP  RH WIND       PRES   REMARKS
JAMESTOWN      SUNNY     48  31  51 NE6G18    30.37F
6HR MIN TEMP:  36; 6HR MAX TEMP:  49;

BISMARCK       MOSUNNY   52  31  44 E6        30.36F
6HR MIN TEMP:  35; 6HR MAX TEMP:  52;

MINOT          MOSUNNY   51  28  41 E14G20    30.35F
6HR MIN TEMP:  36; 6HR MAX TEMP:  51;

MINOT AFB      MOSUNNY   54  32  42 SE15      30.34F
6HR MIN TEMP:  37; 6HR MAX TEMP:  54;

GARRISON         N/A     52  30  43 SE13G23   30.33F
6HR MIN TEMP:  39; 6HR MAX TEMP:  52;

WILLISTON      SUNNY     57  35  43 SE17G23   30.26F
6HR MIN TEMP:  43; 6HR MAX TEMP:  58;

DICKINSON      MOSUNNY   56  37  49 SE17G29   30.25F
6HR MIN TEMP:  34; 6HR MAX TEMP:  56;

HETTINGER      MOSUNNY   55  38  52 SE21      30.28S
6HR MIN TEMP:  33; 6HR MAX TEMP:  55;

$$

 *****  OTHER OBSERVATIONS NORTHEAST NORTH DAKOTA  *****

CITY           SKY/WX    TMP DP  RH WIND       PRES   REMARKS
WALHALLA         N/A     46  28  49 MISG      30.42F
LANGDON        FAIR      48  27  43 NE7G15    30.39F
CAVALIER       FAIR      46  30  53 N7        30.42F
GRAFTON        FAIR      48  32  53 N8G15     30.42F
CANDO          FAIR      48  23  37 E7        30.39F
FORT TOTTEN      N/A     48  26  41 E7        29.95S
ROLLA          FAIR      45  25  45 E10       30.40F
RUGBY          NOT AVBL
 ***** THE ABOVE OBSERVATIONS ARE NON NWS ARE NOT QUALITY
        CONTROLLED AND MAY MIS-REPORT RAIN FOR SNOW...
$$

 *****  OTHER OBSERVATIONS SOUTHEAST NORTH DAKOTA *****

CITY           SKY/WX    TMP DP  RH WIND       PRES   REMARKS
COOPERSTOWN    NOT AVBL
VALLEY CITY    FAIR      48  28  46 NE9       30.37S
OAKES            N/A     48  34  57 N13       30.36F
GWINNER        NOT AVBL
SHEYENNE NWR     N/A     50  32  50 N10       29.95S
BUFFALO        NOT AVBL
WYNDMERE         N/A     48  37  66 N12         N/A
 ***** THE ABOVE OBSERVATIONS ARE NON NWS ARE NOT QUALITY
       CONTROLLED AND MAY MIS-REPORT RAIN FOR SNOW...
$$

  *****  WEATHER ACROSS NORTHERN MINNESOTA  *****

CITY           SKY/WX    TMP DP  RH WIND       PRES   REMARKS
FLAG ISLAND    SUNNY     45  27  49 NE5       30.38F
WARROAD        SUNNY     45  34  65 E7        30.40S
ROSEAU         SUNNY     48  28  46 N3        30.38F
HALLOCK        SUNNY     48  27  43 NE6       30.40F
THF RVR FALLS  SUNNY     48  30  49 NE3       30.38F
6HR MIN TEMP:  34; 6HR MAX TEMP:  46;

HALSTAD          N/A     54  27  34 N13         N/A
FOSSTON        SUNNY     50  36  57 N8        30.36S
BAUDETTE       SUNNY     47  32  56 NW12      30.37S
6HR MIN TEMP:  37; 6HR MAX TEMP:  48;

WASKISH        SUNNY     50  34  53 NE9       30.36S
CROOKSTON      SUNNY     50  30  46 E3        30.39F
$$
  *****  WEATHER ACROSS CENTRAL AND WEST MINNESOTA  *****

CITY           SKY/WX    TMP DP  RH WIND       PRES   REMARKS
BEMIDJI        SUNNY     51  31  47 N7        30.34S
PARK RAPIDS    SUNNY     53  30  41 MISG      30.31F
6HR MIN TEMP:  39; 6HR MAX TEMP:  53;

WADENA         SUNNY     52  36  54 N12G17    30.31S
DETROIT LAKES  SUNNY     52  36  54 NW8       30.33F
MOORHEAD       SUNNY     48  36  61 N8G18     30.36F
FERGUS FALLS   SUNNY     52  36  54 N7        30.34S
ELBOW LAKE     FAIR      51  37  56 N10       30.31F
6HR MIN TEMP:  40; 6HR MAX TEMP:  51;

MORRIS MN      SUNNY     55  39  54 N14G20    30.31S
STAPLES        SUNNY     52  28  40 N6G16     30.31S
WHEATON        SUNNY     50  37  62 N12       30.36S
$$
  *****  WEATHER ELSEWHERE ACROSS MINNESOTA  *****

CITY           SKY/WX    TMP DP  RH WIND       PRES   REMARKS
DULUTH         MOSUNNY   54  33  45 NE9G17    30.27S
6HR MIN TEMP:  43; 6HR MAX TEMP:  54;

INTRNTL FALLS  SUNNY     48  28  46 NE8       30.36S
6HR MIN TEMP:  35; 6HR MAX TEMP:  48;

ELY            NOT AVBL
CLOQUET        SUNNY     54  25  32 N8G16     30.28S
BRAINERD       SUNNY     52  32  46 N10       30.30F
6HR MIN TEMP:  42; 6HR MAX TEMP:  53;

HIBBING        SUNNY     52  29  41 VRB7      30.31S
6HR MIN TEMP:  39; 6HR MAX TEMP:  53;

ALEXANDRIA     SUNNY     52  36  54 NE10      30.31S
6HR MIN TEMP:  41; 6HR MAX TEMP:  53;

SAINT CLOUD    SUNNY     56  38  50 N12G20    30.27S
6HR MIN TEMP:  44; 6HR MAX TEMP:  56;

MINNEAPOLIS    PTSUNNY   59  41  51 NE14G22   30.24S
6HR MIN TEMP:  47; 6HR MAX TEMP:  59;

$$

  *****  WEATHER ACROSS SOUTH DAKOTA  *****

CITY           SKY/WX    TMP DP  RH WIND       PRES   REMARKS
SIOUX FALLS    MOSUNNY   56  43  61 NE12      30.27F
6HR MIN TEMP:  42; 6HR MAX TEMP:  57;

BROOKINGS      SUNNY     52  41  66 N13G20    30.30F
WATERTOWN      SUNNY     54  38  54 NE14      30.31S
6HR MIN TEMP:  37; 6HR MAX TEMP:  54;

HURON          SUNNY     57  38  48 N12G18    30.32F
6HR MIN TEMP:  39; 6HR MAX TEMP:  57;

SISSETON         N/A     50  37  61 N12       30.34S
ABERDEEN       SUNNY     51  31  46 N10       30.35F
6HR MIN TEMP:  39; 6HR MAX TEMP:  51;

MITCHELL       SUNNY     58  39  49 NE12G17   30.31F
PIERRE         MOSUNNY   54  37  52 NE8G16    30.32F
6HR MIN TEMP:  38; 6HR MAX TEMP:  56;

MOBRIDGE       MOSUNNY   54  34  46 SE8       30.32F
RAPID CITY     MOSUNNY   58  44  60 S16G26    30.25F
6HR MIN TEMP:  36; 6HR MAX TEMP:  58;

$$

  *****  SOME WEATHER IN NEARBY STATES *****

CITY           SKY/WX    TMP DP  RH WIND       PRES   REMARKS
GLASGOW MT     MOSUNNY   64  38  38 SE23G31   30.10F
6HR MIN TEMP:  44; 6HR MAX TEMP:  64;

GREAT FALLS MT LGT RAIN  58  54  86 N6        30.03S
6HR MIN TEMP:  47; 6HR MAX TEMP:  63; 6HR PCP:  0.03;

CHEYENNE WY    MOSUNNY   61  46  57 S14       30.28S
6HR MIN TEMP:  44; 6HR MAX TEMP:  61;

SCOTTSBLUFF NE MOSUNNY   62  50  64 SE13      30.25F
6HR MIN TEMP:  48; 6HR MAX TEMP:  61;

OMAHA NE       PTSUNNY   62  47  57 N17       30.20R
6HR MIN TEMP:  52; 6HR MAX TEMP:  62;

DES MOINES IA  CLOUDY    61  51  70 N13G25    30.12S
6HR MIN TEMP:  56; 6HR MAX TEMP:  61; 6HR PCP: TRACE;

DAVENPORT IA   CLOUDY    65  61  87 N18       30.01R
6HR MIN TEMP:  66; 6HR MAX TEMP:  68; 6HR PCP:  0.22;

CHICAGO IL     CLOUDY    51  49  92 NE16      30.05R
6HR MIN TEMP:  51; 6HR MAX TEMP:  69; 6HR PCP:  0.07;

EAU CLAIRE WI  CLOUDY    55  45  68 N14       30.21R
6HR MIN TEMP:  51; 6HR MAX TEMP:  56;

LA CROSSE WI   CLOUDY    59  50  72 N12       30.16R
6HR MIN TEMP:  56; 6HR MAX TEMP:  59;

$$

  *****  SOME NATIONAL WEATHER *****

CITY           SKY/WX    TMP DP  RH WIND       PRES   REMARKS


USA.gov is the U.S. government's official web portal to all federal, state and local government web resources and services.